FREGAT DEB, 45944

Orbit data source: Space-Track

FREGAT DEB, 45944 is space debris in LEO originally from a launch on Mon, 18 Jul 2011 UTC launched from the Tyuratam Missile And Space Complex (TTMTR). Debris objects in space refer to the collection of defunct objects orbiting the Earth. Examples of debris include non-operational satellites, rocket bodies, and fragments generated from explosions, collisions, or faulty payload assembly.

Loading next visibility...
Identifier
45944, 2011-037EZ
Orbit
LEO
Country
Flag of CISCIS
Related business
Manufacturer
Lavochkin
Mission
Spacecraft
Bus & Motor
Unknown
Mass
Unknown
Launch date (UTC)
2011-07-18 (15 years ago)
Launch vehicle
Unknown
Launch site
Tyuratam Missile And Space Complex (TTMTR)
Object type
Payload
Rocket body
Debris
Shape & HBR
Unknown shape, 0.1 m
Radar Cross Section
Small (<0.1 m²)

Expand to show TLE details & history
Last TLE update: 14 hours ago

TLE from 14 hours ago
0 FREGAT DEB
1 45944U 11037EZ  26124.31780074  .00001141  00000-0  51169-2 0  9994
2 45944  51.1296 115.6394 2228847 115.2141 269.5619  9.70560373201448
Epoch: 2026-05-04T07:37Z
TLE epoch observation values (Epoch: 2026-05-04T07:37:37.983Z)
Latitude
0.00001°
Longitude
139.02242°
Altitude
3,367.704 km
Speed
6.236 km/s
True Right ascension
07h 42m 33s
True Declination
0° 00' 00"
Sunlit
Object was in daylight at epoch
Visualization orbit readout
Latitude
Unknown
Longitude
Unknown
Altitude
Unknown
Speed
Unknown
Apparent Right ascension
Unknown
Apparent Declination
Unknown
Sunlit
N/A
Visualization observer readout
Local Sidereal Time
05:44:52
Azimuth
Unknown
Elevation
Unknown
Doppler factor
Unknown
Orbital elements
Apogee altitude
4,975.308 km
Perigee altitude
836.718 km
Semi-major axis
9,284.15 km
Eccentricity
0.22288
Inclination
51.1296°
RAAN
115.6394°
Arg. of periapsis
115.2141°
True anomaly
244.86236°
Mean anomaly
269.5619°
Eccentric anomaly
257.1132°
Mean motion
2.42622 °/min
Orbital period
148.38 mins
BSTAR
0.0051169
Loading maneuver chart data...
Computing Atmospheric mass density...
Loading historical data...
Loading historical data...
Loading historical data...
Loading historical data...
Loading historical data...
Loading historical data...
Loading historical data...

Documentation

Showing up to 5 results
|